Lid_Strength_Index
1 1 0 0 0 0 0 0 0 0 0 0 -0 -0 -0 -0 0 2 6 3 2 -2 0 3 3 3 3 4 5 5 8 10 9 9 8 6 7 6 6 6 6 5 4 3 4
1 0 0 0 -0 -0 -0 0 0 0 0 0 0 0 0 0 3 5 1 -1 -3 -1 3 4 5 4 5 5 5 6 9 9 8 8 8 7 7 6 7 6 5 5 4 4 5
0 0 0 0 -0 -0 -0 0 0 0 0 0 0 0 0 1 6 6 -1 -2 -3 0 3 4 4 5 6 6 6 7 9 7 8 7 8 8 7 7 7 7 5 6 5 4 4
0 0 -0 -0 -0 -0 -0 0 0 0 0 0 1 1 1 2 9 6 -2 -3 -2 2 4 4 5 6 7 8 7 9 7 7 7 7 7 8 7 7 7 6 5 4 4 4 5
0 0 0 0 0 -0 -0 0 -0 0 0 0 1 1 3 7 6 0 -2 -2 2 4 4 5 6 7 8 8 8 8 8 7 7 7 7 6 7 8 7 5 5 5 5 6 5
-0 0 0 0 0 0 0 0 -0 0 0 0 1 1 6 10 5 -1 -1 3 3 4 5 5 6 6 8 8 8 8 8 8 8 8 8 9 8 8 7 6 6 6 6 6 6
0 0 1 1 0 0 0 0 0 1 1 1 2 3 8 8 4 1 3 4 4 5 6 6 6 7 7 9 8 9 10 9 8 9 9 8 10 10 7 7 8 7 6 6 6
1 1 1 1 1 1 1 1 1 2 2 2 2 4 8 6 3 3 5 6 5 6 6 6 6 7 8 8 9 11 11 12 9 10 10 9 12 8 7 8 8 8 7 7 6
1 1 1 1 1 1 1 2 2 2 2 2 4 7 9 4 7 6 6 7 7 7 7 7 7 8 9 10 11 11 13 13 12 10 10 10 11 9 8 8 9 8 8 7 7
1 2 2 2 2 2 2 3 2 2 3 3 6 9 8 9 7 7 7 7 8 7 8 8 9 10 11 11 14 12 13 13 13 10 11 12 12 10 9 9 9 9 8 8 7
1 2 1 1 1 2 4 5 5 7 7 8 8 9 9 7 6 8 7 8 8 9 10 10 11 12 10 10 10 12 13 13 12 10 12 12 12 11 9 9 9 9 8 8 7
1 1 1 1 2 3 5 7 8 8 9 8 8 8 8 7 9 8 7 9 10 11 11 11 12 9 10 11 12 12 13 13 11 11 13 12 12 11 10 9 9 9 9 8 8
2 2 2 2 2 3 6 7 6 7 10 9 10 10 10 9 10 10 9 10 10 12 11 11 10 10 11 11 13 12 13 13 13 12 11 13 12 12 9 10 9 9 9 9 9
2 2 2 2 3 4 5 6 6 7 10 10 11 11 10 10 12 10 9 10 11 12 12 12 11 12 12 13 12 14 11 12 13 14 15 13 16 11 10 10 10 9 9 9 9
3 2 2 2 2 4 5 6 6 9 17 10 12 8 9 11 11 11 10 9 12 12 12 12 13 14 14 12 12 12 13 14 14 14 15 14 16 12 12 12 10 10 10 9 10
4 3 3 3 3 5 6 6 8 11 18 11 12 12 12 11 12 11 11 10 10 11 12 11 12 12 11 12 12 12 13 13 14 14 17 14 15 13 12 11 10 11 11 11 11
5 5 3 3 4 5 6 5 12 17 9 11 12 12 13 13 12 12 12 12 12 13 12 11 12 11 11 12 12 12 13 15 16 16 16 14 16 14 10 12 11 12 12 12 11
6 5 3 3 5 5 4 8 16 12 11 10 10 10 11 10 11 12 12 11 11 12 12 13 14 12 11 10 10 12 12 14 19 18 15 16 16 12 10 11 12 12 12 12 12
6 4 3 3 5 4 6 14 14 12 10 10 10 12 11 11 10 11 12 11 11 10 12 13 13 11 12 11 10 12 14 11 14 14 16 14 12 10 9 12 12 13 13 13 13
7 6 5 3 4 4 9 13 11 9 8 9 12 11 13 11 11 11 12 10 10 9 9 10 15 10 10 11 11 12 10 13 13 18 20 14 13 13 11 12 13 13 13 13 12
7 10 6 4 3 8 13 12 10 7 7 10 11 11 11 12 11 12 12 9 8 8 9 8 12 12 9 10 11 10 12 12 12 13 18 20 15 10 11 12 14 14 13 13 12
7 12 4 2 9 8 11 10 8 8 6 8 8 10 11 10 11 11 12 9 7 7 10 8 11 15 12 8 8 9 10 11 16 16 14 15 15 11 12 13 14 14 13 13 12
9 9 3 2 11 11 8 8 7 8 8 8 9 9 8 11 13 10 10 7 7 8 10 9 13 17 15 11 10 12 11 10 11 13 17 19 16 12 13 13 13 12 13 13 13
8 11 7 5 6 8 10 10 10 7 8 7 8 8 9 11 9 11 10 8 7 7 7 8 12 14 17 14 11 13 12 11 12 16 15 15 13 9 10 11 12 13 13 12 13
9 11 9 10 9 8 8 9 10 10 7 7 9 9 10 12 11 11 9 9 8 7 8 9 14 12 12 12 12 13 13 12 13 13 16 13 13 10 9 10 12 12 12 12 13
10 11 9 10 10 9 9 10 10 9 9 10 10 8 8 10 10 12 10 10 10 8 9 8 13 12 14 11 11 13 11 11 11 11 12 11 12 8 12 11 12 12 12 11 12
8 8 9 12 11 11 11 10 11 10 10 10 10 10 10 9 9 9 8 9 9 10 10 10 12 13 16 12 12 16 13 12 11 10 10 13 11 11 13 12 11 11 11 11 11